Theta_e
342 344 343 342 341 340 339 336 336 335 335 333 330 331 332 334 335 337 337 345 344 344 342 342 342 344 348 348 347 348 348 346 346 342 341 339 339 339 340 340 340 340 342
344 343 344 341 340 342 340 338 336 335 334 333 330 332 333 334 335 335 335 337 342 342 343 342 342 343 348 348 347 347 347 346 344 343 342 341 340 340 341 341 341 342 341
345 346 343 341 339 341 340 338 337 336 334 333 331 331 333 333 334 334 335 335 337 342 342 342 342 342 348 348 348 347 346 344 342 344 343 342 342 341 341 341 342 342 340
346 345 341 339 340 341 340 336 335 333 332 332 330 330 331 333 335 334 336 334 334 335 340 344 344 343 348 348 348 347 346 344 344 343 342 342 341 340 339 341 341 339 337
344 342 340 341 342 339 337 336 334 333 331 330 331 331 332 332 333 333 333 334 334 336 339 341 343 345 348 348 348 347 346 345 343 342 341 341 340 339 340 340 338 336 335
344 341 340 341 340 338 336 333 333 333 331 327 331 330 331 332 332 333 333 334 331 332 338 336 338 342 347 348 347 346 346 344 342 341 340 339 340 340 340 339 337 336 335
342 342 340 340 338 336 333 333 332 330 328 330 327 326 328 330 330 330 331 331 333 335 336 336 338 338 341 346 345 346 346 344 342 339 339 338 339 339 337 337 336 335 334
343 340 340 338 336 335 333 332 331 328 328 331 324 323 318 322 327 329 331 333 332 334 336 341 338 338 340 342 342 343 345 345 343 340 338 338 339 337 337 336 334 332 331
341 341 339 337 336 335 332 331 331 329 326 329 328 322 316 313 319 326 328 330 330 333 334 337 338 339 341 340 342 343 343 343 343 341 338 337 337 336 335 334 333 331 330
339 339 338 336 336 335 333 333 333 330 329 323 327 328 327 323 316 315 325 327 331 331 333 336 337 339 336 340 339 339 338 340 342 340 338 337 336 335 333 332 331 329 329
338 338 337 336 335 335 335 333 333 329 330 327 325 324 325 325 322 318 316 322 326 329 335 334 335 336 337 333 330 329 336 336 337 337 337 336 336 333 331 327 328 329 329
340 337 336 336 337 336 333 335 333 332 331 331 329 327 325 322 321 318 317 320 321 327 331 334 333 334 336 335 336 335 333 332 331 330 331 332 331 326 325 328 330 330 329
336 335 336 336 336 334 335 335 333 332 332 331 328 328 329 330 328 325 322 322 321 327 327 330 332 332 334 335 335 335 333 328 326 325 325 325 326 324 328 332 331 330 330
337 337 337 336 336 335 334 334 334 332 332 332 328 331 329 329 329 329 325 321 320 322 325 326 332 332 332 333 333 330 327 324 323 322 322 322 322 326 329 329 330 330 331
337 337 336 334 335 334 334 335 332 331 331 332 329 329 332 331 331 329 326 325 321 316 318 324 325 330 331 332 330 327 326 324 324 321 319 319 321 324 325 326 326 326 326
334 335 335 335 334 334 334 333 332 333 331 330 331 328 328 329 330 330 328 326 326 322 317 323 325 327 327 328 330 326 326 325 323 322 321 321 320 321 322 323 322 322 323
334 334 335 335 334 333 334 333 331 332 330 330 328 327 326 326 329 331 331 327 326 326 320 323 325 325 324 324 325 326 327 326 324 321 321 319 318 319 320 320 320 321 320
335 332 332 330 333 333 333 332 332 331 330 328 327 326 326 328 325 328 327 326 326 326 322 319 321 321 322 324 325 324 325 326 324 320 319 318 317 316 317 316 314 314 313
333 330 330 330 330 332 332 333 331 331 329 329 328 327 326 327 326 326 325 325 326 326 323 320 318 321 321 323 322 322 322 321 322 319 316 315 314 314 313 311 310 308 307
333 330 329 331 329 330 331 331 331 330 329 329 330 328 327 327 325 324 323 323 324 323 322 320 318 319 320 321 320 318 317 320 319 319 314 313 311 310 309 308 307 306 303
333 329 331 331 332 331 328 330 330 329 330 329 329 329 327 324 323 324 324 322 322 321 320 319 317 317 317 317 316 317 315 316 315 316 311 310 308 306 306 307 306 304 302
332 330 330 329 331 327 309 314 323 328 329 329 327 327 326 321 317 315 316 316 320 320 319 318 317 316 316 318 318 315 315 312 311 318 313 312 312 307 306 302 303 301 300
332 329 329 330 327 324 309 309 312 332 330 330 329 329 327 325 323 321 310 312 311 311 315 321 318 318 317 319 318 317 316 315 315 317 317 311 312 302 300 299 300 299 298
330 328 328 331 326 321 306 305 307 332 330 329 330 329 328 327 324 324 323 322 321 322 322 323 322 321 321 321 321 320 319 322 321 320 318 310 307 301 300 296 299 298 297
331 328 327 325 325 323 302 303 312 331 328 328 328 326 325 322 306 307 322 320 320 318 309 308 308 306 304 307 315 318 320 316 313 315 319 312 308 303 300 297 296 298 296
331 327 324 325 318 324 302 301 310 329 326 324 323 319 307 314 305 308 322 321 319 320 321 320 317 310 310 310 307 321 321 316 314 314 318 312 309 307 302 300 296 294 294
Wind_Speed
5 4 5 4 5 3 4 6 4 2 3 5 5 5 7 6 5 3 1 12 12 12 12 12 11 9 13 17 20 19 19 18 18 17 18 17 17 16 14 12 12 12 14
4 3 4 4 3 3 1 3 2 1 4 4 5 6 5 5 4 4 2 6 14 14 13 14 12 11 13 18 20 21 18 19 18 18 16 18 17 15 16 15 16 17 17
4 3 3 3 4 4 3 3 4 4 4 5 4 4 4 5 4 5 4 4 6 12 15 15 15 12 13 16 21 21 20 21 20 18 18 18 17 16 14 17 17 17 17
5 4 4 4 4 3 2 3 4 3 4 4 4 2 3 5 3 2 5 3 4 6 11 16 15 14 14 17 21 23 22 21 18 19 19 19 17 15 13 16 19 18 18
8 6 4 4 1 1 3 3 4 4 3 3 4 2 3 4 4 5 8 6 6 5 6 13 14 14 14 16 20 23 24 21 21 21 20 18 17 17 17 19 18 19 19
6 5 4 4 3 3 4 3 5 4 4 4 3 3 3 4 4 5 4 6 6 6 5 8 7 8 14 17 21 24 24 25 23 21 19 18 16 18 20 20 18 18 18
4 4 4 3 3 4 6 5 4 4 4 3 1 2 3 5 5 4 5 5 4 5 4 7 5 5 7 20 21 23 25 26 24 23 19 18 18 19 19 19 18 17 17
5 4 5 3 4 4 5 5 5 3 3 4 3 3 3 3 5 5 2 2 2 5 5 5 6 6 7 8 13 22 26 27 26 25 21 18 21 22 21 19 19 20 18
2 5 5 4 4 4 4 5 5 6 4 4 7 4 3 4 4 3 4 3 4 4 5 5 5 6 7 9 13 19 26 27 28 26 24 21 23 23 22 19 18 18 15
5 4 4 4 4 4 4 4 4 5 4 4 4 8 7 2 3 3 3 4 5 5 4 3 5 8 8 8 14 16 20 21 26 27 26 26 25 24 22 19 18 15 13
3 3 4 4 4 3 2 5 4 5 4 3 5 4 7 5 3 1 4 4 2 3 2 4 5 7 7 8 4 5 21 21 22 25 26 25 24 23 22 18 16 14 13
2 4 4 4 3 4 4 3 4 5 5 5 4 5 3 4 5 3 3 6 6 2 3 5 7 6 5 7 9 14 16 18 21 25 25 24 23 21 20 17 17 15 14
1 2 4 3 3 5 3 4 4 4 5 4 6 4 3 3 0 6 6 5 4 1 4 4 5 5 6 7 9 15 16 22 25 23 25 25 21 20 19 16 16 15 13
3 4 4 3 3 4 4 4 3 4 4 4 6 4 4 3 1 3 3 5 6 3 3 4 4 5 5 8 18 23 13 24 25 25 24 24 21 17 13 12 12 11 10
3 4 4 4 4 3 5 5 4 4 3 3 5 3 2 2 2 2 3 6 6 6 3 2 3 6 5 7 15 15 19 24 23 22 21 20 15 11 12 11 10 11 11
4 5 4 3 2 3 3 3 2 3 4 2 3 5 4 2 2 3 6 5 3 6 5 2 3 6 8 7 15 16 18 22 22 20 18 14 12 13 12 11 11 10 9
6 6 4 4 3 5 4 4 3 4 5 5 4 6 5 5 1 4 4 4 3 4 10 4 6 9 10 13 14 15 13 13 11 15 14 13 13 12 11 10 10 9 10
3 4 4 5 4 4 4 2 4 5 6 8 6 5 7 4 4 5 4 4 4 6 11 13 9 8 12 14 16 16 11 8 9 12 14 13 13 11 10 10 11 11 10
3 7 4 7 5 5 4 3 3 6 6 5 4 4 6 7 7 6 6 5 5 7 10 12 9 7 10 11 13 14 12 11 8 17 14 13 12 12 12 12 12 12 11
3 9 5 5 5 5 3 6 7 5 4 3 4 7 6 6 8 8 6 6 7 9 11 11 11 12 11 10 10 12 11 7 8 7 12 10 11 14 14 13 14 14 13
5 7 9 7 6 5 6 5 4 3 2 6 6 8 6 7 8 8 6 7 9 10 11 11 11 12 12 11 10 8 10 8 5 3 5 5 6 6 6 10 12 14 12
6 8 8 6 3 6 9 8 6 2 4 6 8 8 6 8 9 11 11 9 9 14 13 12 12 13 10 10 11 10 11 9 6 4 6 6 6 5 5 4 11 10 11
7 7 5 4 8 6 9 8 10 3 5 6 7 7 7 6 10 10 14 16 15 15 11 14 15 12 15 13 12 11 10 7 5 8 7 7 7 6 5 6 8 9 10
6 5 4 7 8 5 8 7 8 4 6 7 8 8 7 8 9 11 12 13 12 10 10 9 12 12 13 11 10 13 10 6 7 6 8 5 5 5 6 4 7 8 8
7 4 5 4 8 5 6 7 7 7 8 10 9 8 7 8 12 12 13 13 13 10 11 16 14 14 13 12 10 6 5 9 6 4 5 5 4 5 4 4 4 8 9
7 7 5 4 6 7 3 7 8 7 9 7 8 8 12 8 12 11 13 14 15 13 14 12 9 8 8 8 8 4 7 7 6 3 5 4 7 5 3 4 6 5 4
Wind_Direction
218 207 207 211 169 194 198 215 195 205 268 245 244 256 215 228 241 270 136 149 156 173 191 197 206 207 192 192 195 187 176 175 169 166 166 165 171 172 195 179 203 175 152
210 237 206 204 193 199 239 6 314 229 255 268 238 246 238 210 214 269 183 173 175 182 197 200 207 210 198 195 191 186 175 164 169 172 170 172 179 178 182 180 174 149 129
206 259 253 213 195 213 198 224 227 230 239 265 257 237 171 214 239 223 241 192 195 188 201 201 200 208 207 194 189 185 178 171 178 178 170 172 170 165 178 163 153 138 130
190 225 225 224 220 133 168 217 242 243 245 249 273 273 294 238 239 266 242 231 192 205 206 207 201 198 207 196 190 188 179 169 175 165 163 159 154 145 159 155 142 131 125
195 206 228 240 181 135 220 213 232 222 237 245 261 273 258 252 208 188 230 225 229 188 187 204 204 198 194 191 187 185 172 163 158 157 153 149 152 154 157 150 135 135 134
195 211 222 214 155 221 230 206 221 215 220 215 231 230 233 249 245 233 218 236 224 232 172 192 192 197 185 185 181 179 172 162 158 156 151 149 150 149 152 137 140 137 140
204 221 234 171 206 216 234 204 207 215 228 171 188 228 258 255 259 239 239 221 218 202 239 173 179 190 183 180 176 177 173 167 162 159 149 144 143 146 141 136 137 137 120
202 193 216 205 224 224 229 208 197 191 216 172 180 169 202 226 247 238 205 19 332 243 252 173 178 184 161 169 176 176 176 169 164 161 154 152 149 146 139 138 139 129 128
197 197 210 222 211 208 217 212 195 202 195 198 207 189 174 211 160 155 185 221 240 261 189 179 199 166 140 152 168 179 173 168 162 160 155 155 143 142 137 139 136 128 136
177 190 198 245 211 221 199 189 204 204 173 208 193 237 260 262 165 155 179 208 205 228 206 186 171 137 146 148 151 146 156 166 158 158 151 147 144 138 138 135 122 128 144
270 214 220 224 203 195 209 203 202 192 199 209 220 212 236 227 239 160 153 175 188 211 122 171 135 116 116 124 122 192 143 153 153 150 146 144 137 137 128 120 145 150 154
297 229 224 179 199 202 223 209 211 193 211 207 231 251 207 222 194 66 179 162 154 167 97 74 79 88 105 136 148 142 150 150 147 138 139 133 121 120 127 164 158 157 168
212 193 215 163 188 216 199 198 181 197 205 219 209 209 217 249 183 156 188 151 124 63 67 78 101 99 104 113 129 141 138 141 131 126 118 114 121 145 180 163 160 164 163
153 182 145 167 179 207 173 162 170 189 221 229 222 204 232 219 1 134 152 130 109 96 80 104 68 98 121 129 125 112 110 120 111 114 116 125 154 179 183 156 153 157 145
156 164 154 162 192 151 131 169 192 194 172 199 216 153 46 343 42 78 59 176 151 142 104 91 107 86 95 131 124 126 122 125 125 121 130 147 173 171 138 137 125 120 111
181 112 125 177 168 174 146 138 221 163 117 96 56 58 21 347 163 117 174 162 123 132 111 127 79 110 106 109 134 136 134 133 130 137 146 150 146 129 128 127 124 120 119
135 135 154 156 146 155 150 172 169 166 132 111 59 69 47 343 353 74 103 126 124 103 122 98 114 120 114 113 113 115 123 126 130 129 129 128 121 125 129 126 119 115 104
179 134 147 158 144 124 161 171 205 163 158 128 155 175 145 230 113 82 109 81 131 124 127 124 127 130 128 127 125 122 113 111 114 113 111 117 120 122 116 113 102 107 113
241 156 132 139 143 142 138 177 111 72 74 79 88 100 137 112 86 85 73 68 78 112 125 130 128 125 122 122 112 97 104 95 97 99 90 90 94 104 103 105 106 108 113
324 119 131 90 117 153 135 83 82 80 87 123 92 68 57 94 114 106 94 90 100 118 124 125 128 128 124 113 107 112 108 101 101 83 72 89 93 90 97 106 116 118 117
54 117 88 70 56 55 50 73 97 143 148 97 86 75 78 76 111 119 124 117 109 117 125 127 123 119 120 124 120 118 114 106 88 101 109 121 111 102 99 96 113 120 113
88 76 89 100 193 89 67 37 8 107 82 100 111 110 111 94 92 117 109 88 101 123 119 115 115 123 119 124 121 126 128 139 136 203 137 141 131 121 106 71 109 122 119
116 114 116 170 93 100 76 44 13 88 92 92 105 109 98 100 104 107 93 87 78 74 92 128 126 127 126 134 135 139 142 163 143 163 145 136 120 99 99 104 120 123 114
114 111 123 123 106 105 67 42 5 90 97 103 100 91 92 107 108 119 115 108 104 98 108 115 118 124 129 139 141 148 166 137 122 155 136 128 132 117 113 115 136 137 139
135 122 112 84 117 123 56 18 353 96 86 86 88 93 99 91 107 112 117 115 108 97 83 95 102 115 121 132 158 144 135 135 135 150 178 112 155 115 155 162 162 172 174
136 120 109 104 120 130 66 16 359 107 96 97 83 76 75 110 119 122 126 127 123 126 122 119 114 106 130 156 172 177 150 143 150 150 210 117 138 139 160 164 171 174 186